Weather in Brockville

Canada     44°35′25″N   75°41′04″W
temp.,
°C
wind,
m/s
gust,
m/s
humid.,
%
clouds,
%
prec.,
mm/h
press.,
hPa
HPBL,
m
18 april, sun
sun1823:00+4ssw2496100 0.0 101089
02:00+4ssw2595100 0.3 1010161
05:00+4ssw2497100 0.3 1009138
08:00+6sw1294100 0.3 1010127
11:00+8wsw1384100 0.1 1010580
14:00+9wnw238193 0.6 1010625
17:00+11wsw3469100 0.9 10091021
20:00+7sw378799 1.3 1010202
19 april, mon
mon1923:00+6wsw139297 0.1 101071
02:00+4sw229558 0.2 101123
05:00+3ssw229711 0.0 101142
08:00+5ssw368888 0.0 1011245
11:00+11sw57563 0.0 10101135
14:00+13sw575020 0.0 10091487
17:00+13sw59515 0.0 10081434
20:00+9ssw41268100 0.0 1007529
20 april, tue
tue2023:00+7wsw61391100 0.7 10081177
02:00+2wsw6128469 1.1 1011921
05:00+2wsw6107099 0.0 10121152
08:00+2wsw6107157 0.0 10141039
11:00+5wsw71048100 0.0 10151540
14:00+8wsw71038100 0.0 10162349
17:00+7sw694699 0.0 10161668
20:00+4sw41057100 0.0 1017530
21 april, wed
wed2123:00+3sw2660100 0.0 1017242
02:00+2s0061100 0.0 101512
05:00+2ene2464100 0.0 1013128
08:000ne51197100 1.6 1008451
11:00+1ne5798100 5.7 1001248
14:00+1nnw71298100 15.5 999364
17:000wnw51198100 0.8 1003756
20:00−1wnw51190100 1.4 1006813
22 april, thu
thu2223:00−3w5119263 0.0 1007611
02:00−4w41192100 0.0 1007410
05:00−3w41289100 0.0 1006419
08:00−2w41283100 0.0 1007530
11:00+2w61177100 0.0 10061186
14:00+4wsw81281100 0.7 10051500
17:00+4wsw81483100 0.6 10051362
20:00+2sw71597100 1.2 10031184